• In Hungary
  • List of Countries
  • For 7 days
  • Water Temperature
  • Satellite Maps
  • Weather Map
  • News
  • Weather Widgets
  • user-avatar
    Login

    Hourly Weather Sunbury

    Today, 17 January, Wednesday

    Time Temperature Precipitation Wind Pressure Humidity
    00:00 0°C° 0 mm 7 mps 744 mmHg 71%
    01:00 0°C° 0 mm 7 mps 745 mmHg 68%
    02:00 0°C° 0 mm 8 mps 745 mmHg 66%
    03:00 -1°C° 0 mm 8 mps 746 mmHg 63%
    04:00 0°C° 0 mm 8 mps 747 mmHg 63%
    05:00 0°C° 0 mm 9 mps 748 mmHg 62%
    06:00 -1°C° 0 mm 7 mps 749 mmHg 65%
    07:00 0°C° 0 mm 7 mps 750 mmHg 65%
    08:00 0°C° 0 mm 8 mps 751 mmHg 65%
    09:00 +1°C° 0 mm 9 mps 751 mmHg 65%
    10:00 +2°C° 0 mm 9 mps 752 mmHg 63%
    11:00 +3°C° 0 mm 9 mps 753 mmHg 61%
    12:00 +3°C° 0 mm 9 mps 753 mmHg 59%
    13:00 +4°C° 0 mm 8 mps 754 mmHg 59%
    14:00 +4°C° 0 mm 8 mps 754 mmHg 59%
    15:00 +4°C° 0 mm 7 mps 754 mmHg 60%
    16:00 +3°C° 0 mm 6 mps 755 mmHg 63%
    17:00 +3°C° 0 mm 6 mps 755 mmHg 66%
    18:00 +2°C° 0 mm 5 mps 755 mmHg 69%
    19:00 +2°C° 0.1 mm 5 mps 754 mmHg 72%
    20:00 +3°C° 0.1 mm 5 mps 754 mmHg 74%
    21:00 +3°C° 0.1 mm 5 mps 753 mmHg 76%
    22:00 +4°C° 0.9 mm 7 mps 751 mmHg 80%
    23:00 +5°C° 0.9 mm 8 mps 749 mmHg 84%

    Tomorrow, 18 January, Thursday

    Time Temperature Precipitation Wind Pressure Humidity
    00:00 +6°C° 0.9 mm 10 mps 748 mmHg 87%
    01:00 +7°C° 0.3 mm 10 mps 746 mmHg 85%
    02:00 +8°C° 0.3 mm 11 mps 745 mmHg 83%
    03:00 +9°C° 0.3 mm 11 mps 744 mmHg 81%
    04:00 +8°C° 0 mm 11 mps 744 mmHg 78%
    05:00 +7°C° 0 mm 11 mps 745 mmHg 75%
    06:00 +6°C° 0 mm 11 mps 745 mmHg 72%
    07:00 +5°C° 0 mm 9 mps 746 mmHg 73%
    08:00 +5°C° 0 mm 8 mps 747 mmHg 74%
    09:00 +4°C° 0 mm 7 mps 748 mmHg 75%
    10:00 +5°C° 0 mm 7 mps 749 mmHg 72%
    11:00 +5°C° 0 mm 8 mps 749 mmHg 70%
    12:00 +6°C° 0 mm 8 mps 749 mmHg 67%
    13:00 +6°C° 0.1 mm 8 mps 749 mmHg 67%
    14:00 +5°C° 0.1 mm 7 mps 749 mmHg 67%
    15:00 +5°C° 0.1 mm 7 mps 750 mmHg 66%
    16:00 +4°C° 0 mm 6 mps 750 mmHg 69%
    17:00 +3°C° 0 mm 6 mps 751 mmHg 71%
    18:00 +2°C° 0 mm 5 mps 752 mmHg 73%
    19:00 +2°C° 0 mm 5 mps 752 mmHg 74%
    20:00 +2°C° 0 mm 5 mps 752 mmHg 75%
    21:00 +1°C° 0 mm 5 mps 753 mmHg 75%
    22:00 +1°C° 0 mm 4 mps 753 mmHg 76%
    23:00 +1°C° 0 mm 4 mps 753 mmHg 77%

    Day after tomorrow, 19 January, Friday

    Time Temperature Precipitation Wind Pressure Humidity
    00:00 +1°C° 0 mm 4 mps 754 mmHg 77%
    01:00 0°C° 0 mm 4 mps 754 mmHg 78%
    02:00 0°C° 0 mm 4 mps 754 mmHg 78%
    03:00 0°C° 0 mm 4 mps 754 mmHg 79%
    04:00 0°C° 0 mm 4 mps 754 mmHg 79%
    05:00 0°C° 0 mm 4 mps 754 mmHg 79%
    06:00 -1°C° 0 mm 4 mps 754 mmHg 80%
    07:00 0°C° 0 mm 4 mps 754 mmHg 78%
    08:00 0°C° 0 mm 4 mps 754 mmHg 77%
    09:00 0°C° 0 mm 4 mps 755 mmHg 76%
    10:00 +1°C° 0 mm 5 mps 754 mmHg 71%
    11:00 +2°C° 0 mm 6 mps 754 mmHg 66%
    12:00 +3°C° 0 mm 6 mps 754 mmHg 61%
    13:00 +3°C° 0 mm 6 mps 754 mmHg 62%
    14:00 +3°C° 0 mm 6 mps 754 mmHg 62%
    15:00 +3°C° 0 mm 6 mps 754 mmHg 63%
    16:00 +2°C° 0.1 mm 6 mps 754 mmHg 65%
    17:00 +1°C° 0.1 mm 5 mps 754 mmHg 67%
    18:00 0°C° 0.1 mm 5 mps 755 mmHg 68%
    19:00 0°C° 0 mm 5 mps 755 mmHg 69%
    20:00 0°C° 0 mm 5 mps 755 mmHg 69%
    21:00 0°C° 0 mm 5 mps 756 mmHg 70%
    22:00 0°C° 0 mm 5 mps 756 mmHg 71%
    23:00 -1°C° 0 mm 5 mps 756 mmHg 72%

    20 January, Saturday

    Time Temperature Precipitation Wind Pressure Humidity
    00:00 -1°C° 0 mm 5 mps 756 mmHg 72%
    01:00 -1°C° 0 mm 4 mps 756 mmHg 73%
    02:00 -1°C° 0 mm 4 mps 756 mmHg 75%
    03:00 -1°C° 0 mm 4 mps 756 mmHg 76%
    04:00 0°C° 0 mm 3 mps 756 mmHg 76%
    05:00 0°C° 0 mm 3 mps 755 mmHg 77%
    06:00 0°C° 0 mm 3 mps 755 mmHg 78%
    07:00 +1°C° 0 mm 2 mps 755 mmHg 78%
    08:00 +2°C° 0 mm 2 mps 755 mmHg 78%
    09:00 +3°C° 0 mm 1 mps 755 mmHg 78%
    10:00 +3°C° 0 mm 2 mps 755 mmHg 74%
    11:00 +4°C° 0 mm 2 mps 755 mmHg 71%
    12:00 +4°C° 0 mm 3 mps 755 mmHg 67%
    13:00 +4°C° 0 mm 3 mps 756 mmHg 68%
    14:00 +5°C° 0 mm 2 mps 756 mmHg 68%
    15:00 +5°C° 0 mm 2 mps 756 mmHg 69%
    16:00 +4°C° 0 mm 2 mps 757 mmHg 73%
    17:00 +3°C° 0 mm 2 mps 758 mmHg 77%
    18:00 +2°C° 0 mm 2 mps 758 mmHg 81%
    19:00 +2°C° 0 mm 2 mps 759 mmHg 81%
    20:00 +2°C° 0 mm 2 mps 760 mmHg 81%
    21:00 +3°C° 0 mm 1 mps 761 mmHg 81%
    22:00 +3°C° 0 mm 1 mps 761 mmHg 80%
    23:00 +3°C° 0 mm 1 mps 761 mmHg 80%

    21 January, Sunday

    Time Temperature Precipitation Wind Pressure Humidity
    00:00 +3°C° 0 mm 1 mps 761 mmHg 79%
    01:00 +4°C° 0.1 mm 1 mps 761 mmHg 79%
    02:00 +3°C° 0.1 mm 2 mps 761 mmHg 79%
    03:00 +3°C° 0.1 mm 2 mps 761 mmHg 78%
    04:00 +2°C° 0.2 mm 3 mps 760 mmHg 80%
    05:00 +3°C° 0.2 mm 4 mps 760 mmHg 82%
    06:00 +2°C° 0.2 mm 5 mps 759 mmHg 84%
    07:00 +3°C° 0.6 mm 5 mps 759 mmHg 87%
    08:00 +4°C° 0.6 mm 6 mps 758 mmHg 90%
    09:00 +4°C° 0.6 mm 6 mps 758 mmHg 94%
    10:00 +7°C° 1 mm 6 mps 757 mmHg 94%
    11:00 +8°C° 1 mm 6 mps 757 mmHg 94%
    12:00 +9°C° 1 mm 6 mps 756 mmHg 94%
    13:00 +9°C° 0.6 mm 6 mps 756 mmHg 93%
    14:00 +10°C° 0.6 mm 7 mps 756 mmHg 93%
    15:00 +10°C° 0.6 mm 7 mps 755 mmHg 92%
    16:00 +10°C° 0.2 mm 6 mps 755 mmHg 93%
    17:00 +10°C° 0.2 mm 6 mps 756 mmHg 93%
    18:00 +10°C° 0.2 mm 6 mps 756 mmHg 94%
    19:00 +10°C° 0.3 mm 5 mps 756 mmHg 94%
    20:00 +10°C° 0.3 mm 5 mps 756 mmHg 94%
    21:00 +10°C° 0.3 mm 5 mps 756 mmHg 94%
    22:00 +10°C° 0.1 mm 5 mps 757 mmHg 94%
    23:00 +10°C° 0.1 mm 5 mps 757 mmHg 95%

    22 January, Monday

    Time Temperature Precipitation Wind Pressure Humidity
    00:00 +10°C° 0.1 mm 4 mps 757 mmHg 95%
    01:00 +10°C° 0 mm 4 mps 758 mmHg 95%
    02:00 +10°C° 0 mm 4 mps 758 mmHg 95%
    03:00 +10°C° 0 mm 3 mps 758 mmHg 96%
    04:00 +9°C° 0 mm 3 mps 759 mmHg 95%
    05:00 +8°C° 0 mm 3 mps 759 mmHg 94%
    06:00 +7°C° 0 mm 2 mps 759 mmHg 94%
    07:00 +7°C° 0 mm 2 mps 760 mmHg 93%
    08:00 +8°C° 0 mm 1 mps 760 mmHg 92%
    09:00 +7°C° 0 mm 1 mps 761 mmHg 92%
    10:00 +8°C° 0 mm 1 mps 761 mmHg 89%
    11:00 +9°C° 0 mm 1 mps 761 mmHg 85%
    12:00 +9°C° 0 mm 1 mps 760 mmHg 82%
    13:00 +10°C° 0 mm 1 mps 760 mmHg 84%
    14:00 +9°C° 0 mm 2 mps 760 mmHg 85%
    15:00 +9°C° 0 mm 2 mps 759 mmHg 86%
    16:00 +9°C° 0 mm 2 mps 759 mmHg 89%
    17:00 +8°C° 0 mm 3 mps 759 mmHg 93%
    18:00 +8°C° 0 mm 3 mps 758 mmHg 96%
    19:00 +8°C° 0.1 mm 4 mps 758 mmHg 96%
    20:00 +10°C° 0.1 mm 4 mps 758 mmHg 96%
    21:00 +10°C° 0.1 mm 4 mps 757 mmHg 96%
    22:00 +10°C° 0.2 mm 5 mps 757 mmHg 96%
    23:00 +10°C° 0.2 mm 5 mps 757 mmHg 95%
    Show more